{"data":{"norad_id":63950,"intl_designator":"2025-098AA","name":"STARLINK-33962","alt_names":[],"object_type":"PAYLOAD","status":"ACTIVE","operator":null,"country":"US","launch_date":"2025-05-13","launch_site_code":"AFWTR","launch_vehicle":null,"mission":null,"orbit_class":"UNKNOWN","rcs_meters":null,"size_class":null,"mass_kg":null,"dimensions":null,"purposes":["comms"],"wikipedia_slug":null,"has_3d_model":false,"image_url":null,"decayed_at":null,"tle_current":{"epoch":"2026-09-20T22:18:31.423104Z","epoch_age_seconds":110015,"freshness":"FRESH","line1":"1 63950U 25098AA  26263.92953036  .00013310  00000+0  46641-3 0  9994","line2":"2 63950  69.9961 139.9462 0001476 253.5648 106.5365 15.29599603 75849","mean_motion":15.29599603,"eccentricity":0.0001476,"inclination_deg":69.9961,"raan_deg":139.9462,"arg_perigee_deg":253.5648,"mean_anomaly_deg":106.5365,"bstar":0.00046641,"rev_number":7584,"period_min":94.142283848383,"perigee_km":475.99651354564,"apogee_km":478.02015244794,"semimajor_km":6855.1453329968,"source":"CELESTRAK","updated_at":"2026-09-21T09:00:35.173084Z"}}}